Location: Unspecified
(52.0000°N, 4.4000°E)
Time: 02:02:22
(UTC+00:00)

Daily predictions for brighter satellites

Satellite Brightness Start Highest point End
(mag) Time Altitude Azimuth Time Altitude Azimuth Time Altitude Azimuth
USA 308 2.3 00:01:27 10° WNW 00:04:45 74° SSW 00:08:58 10° ESE
CZ-4C R/B 4.5 00:03:27 10° NE 00:06:34 27° E 00:08:18 18° SE
Cosmos 1656 3.7 00:05:18 22° S 00:08:54 65° ESE 00:14:26 10° NE
SL-8 R/B 4.4 00:06:18 10° W 00:10:27 31° SSW 00:12:43 21° SSE
Cosmos 1782 Rocket 4.2 00:08:36 10° NNW 00:12:44 42° W 00:15:05 22° SSW
Cosmos 2242 Rocket 4.0 00:12:13 22° SSE 00:14:54 54° E 00:19:14 10° NNE
Cosmos 540 Rocket 3.9 00:17:04 10° NW 00:21:55 46° WSW 00:24:54 22° S
Meteor 1-21 Rocket 4.4 00:21:46 20° SSW 00:26:00 84° WNW 00:31:57 10° NNE
Cosmos 304 Rocket 4.0 00:23:24 18° SW 00:26:53 64° WNW 00:31:39 10° NNE
Cosmos 1934 Rocket 4.0 00:22:13 10° NNW 00:28:36 81° W 00:33:29 18° S
Cosmos 1346 Rocket 2.7 00:28:35 25° SSW 00:30:34 66° WNW 00:34:13 10° N
Meteor 1-11 4.4 00:26:37 20° S 00:30:38 72° E 00:36:25 10° NNE
USA 59 Rocket 3.0 00:30:46 10° NNW 00:31:56 12° NNE 00:33:08 10° NE
Cosmos 468 Rocket 4.0 00:31:39 10° NNW 00:36:42 61° WSW 00:40:19 19° S
MINOTAUR IV R/B 4.5 00:34:04 10° NNW 00:38:30 90° E 00:42:20 14° SSE
USA 229 DEB 3.9 00:36:00 19° S 00:40:06 50° ESE 00:46:34 10° NE
USA 229 3.9 00:36:03 19° S 00:40:08 49° ESE 00:46:36 10° NE
Meteor 2-1 Rocket 4.4 00:37:49 10° NNW 00:43:42 83° ENE 00:48:55 14° SSE
CZ-2C R/B 3.7 00:40:44 18° SW 00:43:54 31° W 00:48:40 10° NNW
USA 215 3.6 00:38:31 10° SSE 00:44:37 41° SW 00:50:45 10° WNW
ADEOS Rocket 4.0 00:39:20 10° NNE 00:44:39 34° E 00:49:29 11° SSE
Cosmos 405 Rocket 2.0 00:43:35 29° S 00:44:55 79° E 00:47:54 10° NNE
Landsat 5 3.3 00:41:25 10° N 00:45:08 68° WNW 00:47:27 22° SSW
Cosmos 1378 Rocket 3.5 00:42:26 22° S 00:45:09 86° E 00:49:28 10° NNE
Cosmos 2360 4.3 00:42:37 17° SSW 00:47:03 83° WNW 00:52:49 10° NNE
Cosmos 1697 Rocket 3.3 00:44:14 18° S 00:48:08 47° ESE 00:53:30 10° NE
Cosmos 1455 Rocket 4.4 00:44:28 10° N 00:48:30 35° ENE 00:52:31 10° SE
COSMOS 2455 4.4 00:43:43 10° W 00:49:08 34° NNW 00:54:36 10° NNE
BREEZE-M DEB (TANK) 4.2 00:31:59 10° WSW 00:52:40 72° S 00:57:21 10° E
SL-24 R/B - RUBIN 2 3.7 00:48:39 10° NW 00:53:11 88° SW 00:58:08 10° SE
Cosmos 332 Rocket 4.0 00:50:15 20° S 00:53:27 59° ESE 00:58:08 10° NNE
Sich 1 Rocket 4.0 00:50:58 10° N 00:55:30 63° ENE 00:59:37 12° SSE
Cosmos 2251 Rocket 3.6 00:51:58 19° SSW 00:55:51 80° ESE 01:01:14 10° NNE
Cosmos 371 Rocket 4.1 00:52:17 13° SW 00:56:20 44° WNW 01:00:57 10° NNE
Cosmos 2084 Rocket 3.3 00:53:26 16° SW 00:56:35 79° NW 01:00:41 10° NE
Cosmos 2227 Rocket 2.2 00:52:21 10° NNW 00:58:03 86° ENE 01:03:41 10° SSE
Lacrosse 5 rocket 2.5 00:57:04 10° W 00:59:11 17° SW 00:59:11 17° SW
NOSS 3-2 (A) 4.0 00:53:12 10° NW 01:00:14 89° NE 01:08:51 10° SE
Cosmos 1437 Rocket 3.9 00:58:01 10° N 01:01:10 33° ENE 01:04:17 10° SE
Cosmos 841 Rocket 3.5 00:58:52 10° NNW 01:04:04 71° WSW 01:08:46 12° SSE
Cosmos 1782 3.4 01:01:47 10° N 01:05:11 46° ENE 01:08:34 10° SSE
Gbstr 26 Del rocket 4.2 01:00:35 10° WSW 01:06:57 68° SSE 01:14:28 10° ENE
Cosmos 2292 Rocket 4.4 01:05:31 13° SSE 01:08:37 42° E 01:13:03 10° NNE
PSLV R/B 3.8 01:08:10 10° NNE 01:12:02 76° ESE 01:14:44 18° S
GEOS 3 Rocket 4.3 01:08:30 15° S 01:12:28 36° WSW 01:17:25 10° NW
ACS3 Solar Sail 2.6 01:09:16 10° N 01:14:27 38° WNW 01:19:23 12° SW
Cosmos 407 Rocket 4.5 01:11:33 11° WSW 01:16:11 39° NW 01:21:02 10° NNE
Cosmos 1674 Rocket 3.7 01:15:36 18° SSW 01:18:49 66° WNW 01:23:14 10° N
SL-4 R/B 2.1 01:16:18 10° W 01:19:09 30° SSW 01:21:55 10° SE
IDEFIX/ARIANE 42P 3.0 01:14:14 10° NNE 01:19:23 55° E 01:24:00 13° S
Cosmos 1025 Rocket 3.1 01:18:43 18° SSW 01:21:56 67° WNW 01:26:17 10° N
Cosmos 2100 Rocket 4.4 01:17:23 10° N 01:23:37 63° ENE 01:29:43 10° SSE
SJ 16-02 2.7 01:20:46 10° WSW 01:24:30 29° NW 01:28:16 10° N
Cosmos 292 Rocket 3.9 01:21:40 16° SSW 01:25:23 68° ESE 01:30:06 10° NNE
USA 308 3.6 01:23:12 10° W 01:26:29 27° SW 01:30:01 10° SSE
Cosmos 2297 Rocket 3.2 01:21:51 10° NW 01:26:39 29° WSW 01:30:22 15° SSW
MSX 4.1 01:22:26 10° NNE 01:28:12 67° ESE 01:33:28 12° S
Cosmos 2228 3.5 01:25:26 10° N 01:29:38 59° ENE 01:33:48 10° SSE
ATLAS 5 CENTAUR R/B 4.2 01:31:57 10° NNW 01:33:58 15° N 01:36:11 10° NE
ATLAS 3B R/B 3.1 01:28:13 14° SSW 01:35:06 76° SE 01:43:00 10° NE
CENTAUR R/B 3.8 01:27:40 10° NW 01:35:15 39° WSW 01:43:43 10° S
Cosmos 2219 3.7 01:29:49 10° NNW 01:35:28 65° NE 01:41:08 10° SE
Cosmos 2263 Rocket 2.1 01:29:54 10° NNW 01:35:31 77° WSW 01:41:08 10° SSE
Cosmos 158 Rocket 4.2 01:32:21 10° NNW 01:37:14 68° ENE 01:42:04 10° SE
Cosmos 1605 Rocket 4.5 01:31:50 10° NNW 01:37:43 45° W 01:42:54 13° SSW
NOSS 2-3 (D) 4.3 01:33:14 10° NW 01:37:56 74° NE 01:44:11 10° SE
Cosmos 1980 Rocket 2.7 01:33:07 13° S 01:38:07 52° ESE 01:43:37 10° NE
Okean 2 Rocket 3.7 01:34:57 10° NNW 01:39:04 40° W 01:42:26 14° SSW
CZ-4C R/B 4.5 01:36:09 10° N 01:39:15 28° WNW 01:41:58 12° WSW
Cosmos 1954 Rocket 4.3 01:35:23 13° SW 01:39:50 59° WNW 01:44:57 10° NNE
ISS -1.7 01:38:51 13° S 01:40:27 16° SE 01:42:39 10° E
Okean 1 Rocket 3.7 01:40:34 10° NNW 01:44:35 38° W 01:47:57 14° SSW
ADEOS II 4.3 01:41:54 10° NE 01:45:34 19° E 01:49:12 10° SE
SL-19 R/B 4.1 01:45:38 10° SSE 01:48:42 61° ENE 01:51:36 10° N
Cosmos 1844 Rocket 4.2 01:43:33 10° NNW 01:48:49 39° NE 01:54:04 10° ESE
ALOS 4.1 01:49:18 10° NE 01:53:04 25° E 01:56:49 10° SSE
NOSS 3-2 (C) 4.1 01:46:08 10° NW 01:53:10 86° NE 02:01:48 10° SE
CZ-2D R/B 3.7 01:53:24 10° NNE 01:58:11 31° E 02:02:52 10° SSE
Cosmos 1975 Rocket 3.2 01:55:51 10° S 02:00:05 69° E 02:04:23 10° NNE
Cosmos 1802 Rocket 4.2 01:57:24 10° N 02:03:51 82° E 02:10:18 10° SSE
Cosmos 2058 3.0 02:00:30 10° S 02:04:22 71° E 02:08:18 10° NNE
NOAA 11 4.4 02:01:25 10° NNE 02:06:56 73° ESE 02:12:25 10° S
Cosmos 2082 3.8 02:01:24 10° NNW 02:07:05 89° ENE 02:12:47 10° SSE
Geosat 4.5 02:07:40 10° NNE 02:12:34 54° NW 02:17:25 10° SW
Cosmos 1864 Rocket 4.5 02:07:59 10° N 02:14:09 85° W 02:20:19 10° S
MOS 1-B Rocket 4.0 02:12:07 10° NNE 02:17:54 66° WNW 02:23:27 10° SSW
NOSS 2-3 (E) 4.2 02:13:07 10° NW 02:17:57 67° SW 02:24:26 10° SSE
SL-16 R/B 3.9 02:14:35 10° SSE 02:19:12 27° ESE 02:23:50 10° NE
Cosmos 1814 Rocket 4.0 02:14:45 10° NNW 02:20:03 71° WSW 02:25:16 10° SSE
USA 59 Rocket 1.3 02:18:21 10° NNW 02:21:15 35° NE 02:24:44 10° ESE
Cosmos 1933 3.4 02:18:37 10° N 02:22:26 76° ENE 02:26:13 10° SSE
NOSS 8 (A) 3.9 02:19:54 10° NW 02:22:47 83° SW 02:25:51 10° SE
Cosmos 1459 Rocket 4.2 02:19:50 10° NNW 02:25:57 58° W 02:32:06 10° S
Cosmos 1455 Rocket 4.1 02:22:19 10° NNW 02:26:05 29° W 02:29:51 10° SSW
ADEOS Rocket 3.4 02:24:44 10° N 02:30:25 47° WNW 02:35:44 10° SW
USA 229 DEB 4.2 02:24:53 10° WSW 02:30:58 55° NNW 02:37:55 10° NE
USA 229 4.2 02:24:54 10° WSW 02:31:00 55° NNW 02:37:58 10° NE
NOSS 2-3 (C) 4.1 02:26:26 10° NW 02:31:12 74° SW 02:37:51 10° SE
Cosmos 968 Rocket 4.1 02:26:13 10° SW 02:31:18 48° WNW 02:36:23 10° NNE
Cosmos 1697 Rocket 3.6 02:26:56 10° WSW 02:32:12 40° NW 02:37:30 10° NNE
Resurs 1-4 Rocket 2.6 02:26:59 10° NNE 02:32:12 60° ESE 02:37:24 10° S
H-2A R/B 3.3 02:28:36 10° SE 02:32:25 50° ENE 02:36:15 10° N
FENGYUN 3A 4.1 02:28:50 10° N 02:34:03 53° WNW 02:39:14 10° SW
Aureole 3 Rocket 3.0 02:30:05 10° N 02:34:19 69° ENE 02:37:36 10° SSE
DMSP B5D2-2 4.2 02:29:07 10° S 02:34:19 61° WSW 02:39:33 10° NNW
Cosmos 2369 3.9 02:30:52 10° SSW 02:36:32 72° ESE 02:42:16 10° NNE
Cosmos 2123 Rocket 4.1 02:30:32 10° SSW 02:36:50 75° W 02:43:10 10° N
